Wind_Speed
13 12 12 11 11 10 10 10 9 9 8 7 6 5 4 4 5 5 5 5 6 6 6 6 6 7 7 7 7 7 7 6 6 5 5 5 5 5 5 5 5 4 4 5 5 5 6 6 6 6 6 5 5 4 3 2 2 2 2 4 5 6 5 6 6 6 6 6 8 8 9 9 10 12 12 11 8 8 9 11 14 15 15 16 16 16 14 14
14 13 13 12 12 11 11 10 10 9 8 7 6 5 5 6 6 6 6 7 7 7 7 7 7 8 8 8 7 7 7 6 5 5 5 5 4 4 3 3 4 4 5 5 6 6 7 7 7 6 5 5 4 3 3 2 2 2 3 4 5 6 6 6 7 7 7 8 8 9 9 9 10 12 12 12 9 7 8 12 14 14 15 16 17 17 16 15
15 14 13 13 13 12 12 11 11 9 8 7 7 6 6 7 7 7 7 8 8 8 8 8 8 8 8 8 8 7 7 6 5 5 5 4 3 2 3 3 4 5 6 6 6 6 6 6 5 4 3 3 3 3 3 3 3 4 3 4 5 5 6 7 8 8 8 8 8 9 10 9 10 12 12 14 11 8 9 10 11 13 13 15 16 16 16 16
16 15 14 14 13 13 12 12 11 10 9 8 8 7 8 8 8 8 9 9 9 9 9 9 9 9 8 8 7 7 6 6 5 4 3 3 3 3 3 4 5 5 6 5 5 5 4 3 3 3 3 3 3 4 5 5 5 5 4 4 4 5 6 8 9 10 10 10 9 10 11 10 10 12 13 15 13 9 11 10 9 10 11 13 14 16 17 17
16 15 15 14 13 13 12 12 11 10 10 9 9 9 9 9 10 10 10 10 10 10 10 10 10 9 8 8 7 6 6 5 4 4 3 3 4 3 4 5 5 6 6 5 5 4 4 4 4 5 5 5 5 6 7 7 6 6 5 5 6 6 6 9 11 12 11 11 10 10 10 10 11 12 13 14 12 11 12 9 8 9 10 13 14 16 17 18
16 16 15 14 14 13 13 13 12 11 11 11 10 10 11 11 11 11 11 12 11 11 11 10 10 9 8 8 7 6 6 5 4 4 5 5 4 4 5 5 6 6 6 6 6 6 6 6 7 8 8 8 8 9 9 9 8 8 6 7 8 8 6 10 12 12 12 11 10 11 11 11 11 12 12 12 12 13 12 9 8 10 11 13 15 17 18 17
17 17 16 15 14 14 14 14 13 13 12 12 12 12 12 12 13 13 13 13 12 12 11 11 10 9 9 8 8 7 7 7 7 6 7 6 6 6 6 6 7 7 8 7 8 8 8 9 10 11 11 10 10 10 11 11 11 10 9 9 10 9 7 10 12 12 12 11 11 12 11 10 12 12 9 9 12 11 10 10 10 10 11 12 14 17 18 18
19 18 17 16 16 15 15 15 15 14 14 14 14 14 14 14 14 14 14 14 13 12 11 11 11 10 10 9 9 8 7 9 9 7 7 8 8 8 8 9 9 9 10 10 10 10 10 11 11 12 13 12 12 12 13 13 13 13 11 10 9 9 9 11 12 11 12 11 12 12 9 10 13 12 8 8 11 9 9 11 11 12 12 12 13 14 17 19
20 19 19 18 18 17 17 16 16 16 16 16 15 15 15 15 15 15 15 14 14 13 12 12 12 11 11 10 11 9 8 10 10 9 9 9 10 10 11 11 11 11 12 12 12 12 12 13 13 14 14 14 14 14 15 14 14 14 12 11 10 11 11 11 10 9 12 12 12 12 9 11 13 11 9 10 10 9 11 12 12 13 14 14 14 13 14 16
22 21 20 20 19 19 18 18 18 18 17 17 17 16 17 17 17 16 16 15 15 14 14 13 13 13 12 12 12 10 9 11 11 10 11 11 12 13 13 14 14 14 14 14 14 14 14 15 15 15 15 16 15 15 15 15 15 14 14 14 13 13 11 10 10 10 12 11 11 12 10 11 13 12 11 11 12 13 14 14 15 15 15 16 16 15 14 14
23 23 22 22 21 21 20 20 20 19 19 18 18 18 18 18 18 18 17 16 16 15 15 14 14 14 14 14 13 11 11 12 12 13 13 14 15 15 15 16 16 16 16 16 16 16 16 16 16 16 16 16 16 16 16 15 15 15 16 15 14 14 13 11 11 12 12 10 10 11 12 13 13 13 12 12 15 16 16 16 17 18 18 18 17 17 16 16
25 25 24 23 23 22 22 22 21 21 20 20 19 19 19 19 19 19 18 17 17 17 16 16 16 16 16 16 14 13 14 14 14 15 16 16 16 17 17 17 17 18 17 17 17 17 17 17 17 17 17 17 17 16 16 16 16 16 17 17 16 16 15 13 14 13 10 9 10 12 15 15 13 12 12 13 16 17 17 18 19 21 21 20 18 17 17 17
27 26 25 25 24 24 24 23 23 22 21 21 21 20 20 20 20 19 19 18 17 17 17 17 17 17 18 17 15 16 16 16 16 17 17 18 18 18 18 19 19 19 18 18 18 17 17 17 17 18 18 19 19 18 17 17 17 17 18 19 18 17 17 14 12 12 10 10 11 12 16 16 12 11 11 14 16 18 20 21 21 22 23 22 20 19 18 17
28 27 27 26 26 25 25 24 24 23 22 22 22 22 21 21 21 20 19 19 18 19 19 19 19 19 20 19 17 17 18 18 18 18 19 19 19 19 19 20 20 19 19 19 18 18 18 17 17 18 19 19 20 19 18 18 19 19 19 19 19 17 16 14 13 14 13 13 13 12 17 17 12 13 13 15 18 20 22 21 22 23 23 23 22 21 20 19
29 29 28 27 27 26 26 25 24 23 23 23 23 23 22 22 21 20 20 19 19 20 20 21 21 21 22 21 20 20 20 20 20 20 20 21 20 21 20 20 20 20 19 18 18 18 17 17 17 18 19 20 20 19 18 18 19 19 19 18 17 17 17 17 17 17 14 13 14 13 16 16 14 16 17 17 20 21 22 22 23 23 22 21 21 21 21 21
31 30 29 29 28 27 26 26 25 24 24 24 24 24 23 22 21 21 21 21 21 21 22 22 22 23 24 22 21 21 20 20 20 20 20 20 20 20 20 20 19 19 18 19 18 18 18 17 18 18 20 21 21 19 18 18 20 19 19 19 18 19 19 18 18 16 14 15 16 15 17 18 17 19 19 19 22 24 25 25 23 21 19 19 19 19 21 21
32 31 30 30 29 28 27 26 26 25 25 25 25 24 23 23 22 22 22 22 22 23 23 24 24 25 24 22 22 21 20 20 20 21 21 21 21 21 20 20 20 20 20 20 19 19 18 18 19 20 21 22 21 19 17 19 21 19 19 19 18 18 18 19 19 18 17 16 14 16 19 20 19 21 23 23 25 27 27 27 24 20 17 16 17 18 19 18
33 32 31 30 29 28 28 27 26 26 26 26 25 24 24 23 23 23 23 23 24 24 25 24 24 25 24 21 22 21 20 20 20 20 20 20 20 20 21 21 21 21 20 19 20 19 20 20 20 21 23 25 23 21 20 19 19 18 18 19 18 18 20 22 21 20 21 20 18 20 23 24 21 22 25 25 26 28 28 28 26 21 16 15 17 18 17 15
33 33 32 31 30 29 29 28 27 26 26 26 26 25 25 25 25 25 25 25 25 25 24 23 22 23 22 20 20 21 21 20 20 20 19 19 19 20 20 20 20 20 20 21 22 21 22 22 21 24 27 26 23 22 21 18 17 17 19 20 21 20 23 25 23 23 25 25 25 24 26 26 23 23 24 25 26 27 27 27 26 21 16 16 17 17 16 14
34 33 32 31 31 30 30 29 27 27 27 27 26 26 26 26 27 27 26 27 26 25 25 24 24 25 24 23 23 24 24 23 22 22 22 22 22 22 23 23 24 24 25 25 23 23 23 23 25 28 27 23 20 19 19 18 19 20 20 22 23 24 26 27 25 25 26 27 26 25 25 25 23 23 25 26 26 27 26 25 23 20 17 17 17 17 15 14
34 33 33 32 32 32 31 30 28 27 27 27 27 27 27 27 27 27 27 27 26 26 26 26 27 27 25 25 25 25 24 24 24 24 24 25 25 26 26 26 27 27 27 25 25 25 25 26 28 27 24 21 19 19 20 21 22 22 23 23 24 27 30 27 25 25 25 25 25 23 24 25 24 25 27 27 27 25 24 21 19 19 18 18 18 17 16 16
34 34 33 33 33 32 32 30 29 28 28 28 28 28 28 27 28 28 28 29 28 27 28 28 29 28 26 26 26 25 26 26 26 26 26 26 27 28 28 28 28 27 26 26 26 26 27 30 29 24 22 23 23 24 24 24 25 24 24 26 28 30 30 26 23 22 20 21 21 21 24 25 24 27 28 27 26 23 20 18 17 18 19 19 18 17 17 18
35 35 34 34 34 33 33 31 30 29 29 29 28 28 28 28 28 28 28 31 32 30 29 30 30 30 28 28 27 27 28 27 27 28 27 28 29 29 30 30 29 28 28 28 29 28 29 28 25 20 20 21 22 23 24 25 26 26 26 27 29 29 27 24 21 20 19 21 23 23 26 27 27 28 28 26 24 20 17 16 17 18 18 18 18 19 20 20
37 36 36 35 35 35 34 33 32 30 29 29 29 28 28 28 27 27 28 32 35 34 31 31 32 32 30 29 29 28 29 29 29 30 29 31 32 31 32 31 30 31 30 30 30 31 31 29 26 24 23 22 22 23 24 25 25 25 26 28 29 28 25 24 22 21 22 24 25 24 25 28 28 26 24 22 20 18 17 17 18 18 18 18 19 21 22 22
38 37 37 36 36 36 35 35 33 30 30 30 29 28 28 27 26 27 27 30 37 38 34 33 34 33 33 31 31 31 31 33 33 32 32 33 34 34 33 32 31 32 31 29 29 31 31 29 29 29 27 27 27 28 28 26 25 26 27 27 27 25 23 22 20 19 21 21 21 18 14 15 14 12 13 14 14 15 16 17 17 17 18 19 20 21 22 23
40 39 38 37 38 37 36 36 32 30 31 30 28 28 27 27 26 25 25 28 38 42 37 35 33 31 32 32 31 31 33 36 35 33 35 35 36 36 34 34 34 32 30 28 27 30 31 28 28 27 26 26 27 28 29 27 25 26 26 24 21 18 16 16 16 16 15 13 12 10 8 11 12 9 11 13 14 14 16 16 17 18 19 20 21 21 22 23
41 40 39 39 39 38 38 36 32 32 32 29 28 28 26 27 24 24 21 18 28 36 33 32 30 28 28 28 28 29 29 31 30 31 35 35 37 38 36 35 35 32 29 27 27 28 28 25 24 23 23 25 26 26 26 25 24 24 25 22 18 16 14 14 15 15 15 16 15 13 15 19 20 16 17 18 18 18 18 18 18 19 21 21 21 21 21 22
41 40 40 40 39 39 38 36 34 33 31 29 28 27 27 26 24 21 14 6 12 20 19 19 22 22 22 23 24 27 29 29 25 25 28 30 34 37 36 36 34 30 27 28 29 28 24 21 19 18 18 21 21 21 21 22 23 23 23 21 18 16 15 15 15 14 15 16 15 16 17 16 16 15 14 15 17 16 17 17 18 19 20 21 21 20 20 21
42 41 41 40 40 40 40 38 35 32 31 31 29 28 27 25 24 18 9 6 13 17 14 14 17 17 16 17 19 22 26 28 27 25 25 25 28 32 34 32 30 28 28 29 29 27 23 22 19 17 17 18 16 15 17 19 19 20 20 19 18 16 14 14 14 14 14 12 12 16 16 12 12 12 9 11 13 12 11 13 14 16 18 20 20 20 20 20
43 43 41 42 43 42 41 39 36 34 33 32 29 29 28 27 25 15 7 12 16 13 14 15 18 19 17 17 18 20 24 26 28 28 27 26 25 26 28 27 25 26 27 28 28 26 25 24 22 20 18 16 14 14 16 17 17 18 18 16 14 13 13 13 13 12 10 8 8 12 15 15 8 4 3 9 8 4 6 8 11 15 18 19 20 19 19 20
44 44 43 44 44 43 43 40 36 35 33 32 30 30 29 27 23 13 9 21 20 15 18 18 18 20 19 20 20 21 24 25 27 28 28 27 25 24 24 25 24 23 24 27 26 25 26 24 23 23 20 17 16 15 16 17 18 18 17 15 12 8 8 10 10 9 6 4 4 5 11 18 14 4 4 7 7 5 4 7 11 14 17 18 19 19 19 18
44 45 44 45 45 43 43 39 35 34 33 33 32 32 31 23 20 23 24 22 14 13 20 21 21 22 21 23 24 24 24 25 26 26 26 26 24 23 22 23 23 20 19 24 25 23 23 23 22 22 21 20 19 17 17 18 19 19 18 16 10 2 2 4 4 4 6 7 8 8 9 15 23 21 14 10 9 10 12 10 10 12 15 17 18 18 18 18
45 44 44 45 45 44 43 39 36 35 35 36 33 33 30 18 20 40 43 29 14 8 11 15 21 25 24 25 26 25 25 25 26 26 25 25 24 23 21 22 24 21 16 16 18 19 17 17 21 24 23 22 23 23 20 19 19 21 22 19 12 4 2 3 3 2 6 8 9 11 10 12 19 20 17 17 17 17 16 14 12 13 15 17 19 19 20 21
46 45 45 46 46 45 44 41 40 39 38 38 37 34 30 23 32 45 44 41 33 21 14 11 16 22 25 27 25 24 25 25 26 27 27 27 27 26 26 24 24 24 21 15 13 13 11 10 15 20 21 20 22 23 21 19 16 17 21 21 18 12 7 4 3 3 3 5 7 8 7 7 8 10 10 10 9 10 13 13 13 15 18 20 23 25 26 26
46 47 47 48 48 48 47 44 43 42 40 40 38 36 36 38 45 43 39 43 42 36 29 20 17 21 25 27 26 24 25 25 27 28 29 30 30 29 29 29 27 26 25 20 14 12 12 12 12 14 16 15 16 18 21 22 17 14 18 22 22 21 15 8 5 7 6 6 7 9 11 16 20 25 25 19 17 18 17 18 19 20 22 24 27 27 25 22
48 50 50 52 53 51 49 48 46 43 42 41 39 42 47 50 49 44 41 40 40 41 38 28 24 25 26 28 28 27 26 27 29 29 30 32 32 33 32 29 28 28 27 24 19 13 12 12 12 13 15 14 14 15 19 23 20 16 20 24 23 22 19 12 8 9 6 6 9 10 16 26 29 31 31 25 24 24 21 22 22 21 22 24 25 23 19 17
54 55 56 57 56 55 52 50 48 44 42 44 46 49 55 57 53 50 45 38 35 37 37 33 31 30 29 29 29 30 30 30 31 30 30 29 28 31 34 31 28 27 25 23 22 18 14 11 11 12 14 15 16 16 19 23 23 20 21 23 21 17 17 14 6 3 2 3 8 11 19 28 25 22 25 23 21 21 19 19 19 19 20 21 22 20 19 21
58 58 59 60 58 56 54 51 48 45 44 46 51 54 57 57 55 54 49 40 33 32 35 37 34 32 32 30 29 30 31 33 34 31 30 29 24 24 27 29 30 28 23 21 22 21 18 14 13 14 15 15 17 19 19 22 25 26 23 20 17 12 12 14 9 3 3 2 5 12 20 28 27 23 25 24 22 21 18 17 17 16 18 20 21 22 22 24
57 57 61 63 59 55 54 52 49 49 49 51 53 54 57 57 56 54 50 43 33 29 34 37 35 32 32 31 30 30 32 36 37 34 32 30 28 25 22 21 23 25 24 24 24 23 20 15 12 15 18 18 20 23 23 24 25 28 27 23 20 15 11 16 15 9 5 3 6 10 14 22 25 19 18 21 24 22 17 15 15 15 17 20 20 21 21 22
55 56 61 62 59 57 54 52 51 51 54 56 58 59 58 57 56 54 51 45 36 31 33 35 35 35 34 32 30 30 33 37 39 38 36 33 30 28 25 22 19 19 21 22 25 24 23 20 15 15 18 20 23 24 25 26 26 27 29 27 26 24 18 15 17 18 12 4 3 5 9 22 25 16 16 21 21 18 17 17 18 17 19 20 20 20 21 21
54 55 60 59 57 55 52 52 55 55 56 59 62 63 60 55 53 51 49 47 43 38 34 33 35 37 37 36 34 33 33 35 38 40 39 38 34 28 26 26 22 20 19 21 25 25 24 24 23 21 22 25 26 26 25 26 26 27 28 29 29 29 25 14 11 21 22 13 10 5 6 25 32 23 23 25 19 17 21 23 22 21 22 23 23 22 22 22
53 55 59 58 55 53 51 54 59 59 59 62 63 63 60 57 54 49 45 44 44 43 38 35 35 36 37 38 36 34 35 37 38 40 40 41 38 31 26 23 22 22 21 21 23 23 24 25 25 26 27 26 25 25 25 24 26 27 27 28 29 29 30 22 12 16 20 20 21 11 6 27 41 35 34 32 27 28 29 27 26 25 25 24 22 21 21 23
55 56 58 56 54 52 51 53 58 59 60 61 62 61 60 60 58 54 49 46 45 44 42 39 38 36 37 39 37 35 36 37 37 38 39 39 37 33 28 24 22 22 23 23 22 22 23 25 25 23 23 23 23 25 26 24 25 28 30 33 33 31 33 30 25 23 18 19 18 6 5 27 37 34 34 32 29 31 30 29 29 27 25 22 21 22 23 24
56 56 57 54 50 48 49 52 55 57 59 58 59 60 59 59 60 58 56 53 49 46 45 45 43 40 39 40 39 36 35 34 34 34 35 35 34 32 29 28 26 25 25 24 23 23 24 26 24 16 9 11 15 17 22 26 28 31 33 35 35 35 34 32 33 29 21 21 19 7 11 27 31 32 35 31 29 31 29 29 29 27 25 25 25 27 27 26
57 54 55 55 50 45 46 52 54 55 57 57 57 58 57 57 58 58 55 53 51 49 47 48 48 46 43 41 40 40 37 35 32 31 33 34 32 31 29 29 28 28 27 25 25 25 25 27 28 20 11 9 10 10 18 28 32 34 36 36 35 36 36 34 35 30 19 16 22 22 25 29 33 37 36 31 32 33 28 27 28 27 27 27 27 27 26 24
60 55 53 54 55 51 49 51 52 54 56 56 56 55 55 54 54 53 50 49 50 49 47 49 49 47 44 42 41 41 41 38 34 31 32 33 32 31 29 28 29 28 28 29 29 29 28 29 31 30 28 26 23 19 19 23 26 29 32 34 35 35 37 37 35 31 24 17 23 36 38 33 37 41 35 31 33 32 29 29 28 27 26 25 26 27 25 24
56 54 53 51 49 48 50 52 51 53 55 55 52 52 52 51 50 49 47 48 50 48 46 48 50 48 46 44 42 41 40 38 35 35 34 33 31 30 28 28 29 30 31 32 33 32 31 32 34 36 36 36 34 31 27 25 25 27 27 29 31 32 34 38 36 34 32 23 25 39 40 34 41 44 36 33 34 31 29 29 28 28 27 26 27 27 26 25
45 48 51 51 46 44 48 53 53 53 54 54 52 50 51 50 49 49 48 47 47 47 46 47 50 50 48 45 42 39 38 35 35 37 38 36 32 30 29 30 30 32 34 34 34 34 33 34 37 37 36 37 37 36 35 34 32 33 32 33 35 34 34 38 38 38 37 32 33 41 39 38 45 43 35 35 36 32 30 31 32 32 30 28 28 28 29 31
40 40 42 46 48 45 45 48 52 52 52 53 52 52 51 50 50 51 50 47 46 48 48 48 49 49 48 46 42 38 37 36 36 38 38 36 34 33 34 33 33 34 35 33 32 30 30 32 33 33 35 36 37 37 37 38 38 39 42 43 45 43 41 41 41 40 39 39 42 43 41 44 48 43 39 39 38 35 35 36 37 36 34 34 34 36 39 41
41 40 39 41 44 45 42 41 46 50 51 50 49 50 50 50 50 49 48 47 47 48 49 49 49 47 46 45 42 39 37 35 36 38 35 33 34 36 37 37 36 35 34 33 30 28 30 32 31 32 34 34 38 39 38 39 41 43 47 50 48 45 45 44 42 38 37 39 41 41 41 47 48 44 43 43 40 39 39 39 40 39 38 38 39 41 43 42
39 40 40 39 40 43 44 41 39 43 46 47 47 48 48 49 49 45 43 45 46 46 48 48 46 43 42 41 40 37 35 34 36 37 35 33 34 35 36 38 38 35 32 30 28 28 29 31 31 31 29 31 38 38 38 41 42 44 52 53 49 46 46 45 41 38 39 41 40 40 44 48 48 46 46 46 43 41 39 38 38 38 37 38 39 40 40 38
39 39 39 38 37 38 40 40 37 36 38 38 39 42 43 46 46 41 38 39 42 43 44 44 41 38 38 39 38 36 36 37 38 38 37 37 35 33 33 34 34 32 29 26 24 25 27 28 30 30 26 30 36 36 37 36 29 35 52 55 50 50 49 44 41 41 42 42 41 42 46 47 45 42 42 41 39 36 35 34 34 34 35 35 36 35 34 33
Wind_Direction
177 178 179 180 180 181 183 185 186 189 191 193 197 202 208 219 229 237 243 247 250 252 254 256 258 260 262 263 265 268 270 273 277 277 275 279 279 273 274 276 276 278 280 283 285 285 283 284 285 287 289 288 285 288 294 298 309 299 274 260 260 261 251 248 245 243 254 268 278 282 284 286 285 284 288 294 298 302 305 296 286 286 291 291 291 293 293 291
186 187 188 189 189 190 192 192 196 199 202 206 212 218 227 236 243 249 253 255 257 257 259 259 258 260 260 262 265 266 270 275 276 274 276 280 277 266 265 269 275 282 284 288 291 286 283 284 285 286 287 286 284 292 303 315 321 317 296 272 267 266 258 256 252 256 267 271 277 280 279 282 285 287 291 293 296 293 276 273 278 282 289 291 293 294 293 290
193 194 195 195 196 197 198 200 204 208 212 218 225 233 241 247 253 257 259 260 260 261 261 260 260 260 262 263 265 268 271 272 273 275 273 268 259 258 266 274 283 288 293 296 294 286 281 281 282 283 278 277 285 295 301 311 311 311 303 282 276 268 257 255 258 267 273 271 274 279 280 282 285 291 295 292 296 289 270 269 273 275 280 283 286 289 290 290
200 201 201 202 203 204 205 208 212 216 221 228 236 244 252 258 262 264 266 266 266 266 264 263 262 262 263 263 264 267 266 268 276 267 247 245 259 271 280 286 289 291 298 300 296 291 282 277 277 275 272 278 293 296 297 300 300 300 294 280 272 264 253 252 260 267 270 270 273 276 278 282 286 292 292 289 296 287 274 280 281 275 271 269 273 278 282 285
206 207 207 208 210 211 213 215 219 224 230 238 246 253 260 265 269 271 272 272 272 271 268 266 264 263 261 259 258 260 263 273 271 238 229 264 277 279 283 288 291 293 299 300 295 288 277 274 278 279 277 284 291 290 290 291 291 291 288 279 270 260 250 255 261 264 269 273 274 274 279 290 293 289 285 288 292 278 272 278 279 277 274 272 272 272 275 279
212 212 213 215 216 218 219 223 226 232 238 245 252 259 266 270 273 274 274 274 273 270 267 264 261 259 256 254 252 252 258 266 256 243 262 277 275 276 279 283 287 290 293 293 289 284 280 276 276 276 277 282 284 283 284 284 282 283 281 277 273 267 251 252 259 264 270 273 274 277 287 301 295 284 286 287 279 272 276 283 276 273 274 277 278 277 276 276
216 216 218 220 222 223 225 228 233 238 243 249 255 261 266 271 273 274 273 273 271 267 262 258 255 254 252 251 250 252 253 254 258 265 272 274 274 277 277 279 283 285 285 284 283 282 280 278 276 275 277 279 280 280 281 281 282 282 280 273 271 272 258 250 258 265 269 269 273 282 296 301 287 288 297 275 263 271 284 292 288 282 276 273 275 277 280 281
219 219 221 223 225 227 230 232 236 241 246 251 256 261 266 270 272 273 273 272 269 264 258 253 251 251 252 252 251 252 250 252 261 267 266 270 274 276 278 279 280 279 280 280 279 279 279 279 278 278 280 279 279 279 279 281 283 284 284 278 274 275 268 261 263 264 264 268 277 286 296 289 283 296 300 254 251 266 282 294 294 289 286 281 275 272 275 281
221 221 222 224 227 230 233 235 238 242 247 252 257 262 267 270 271 272 272 271 267 261 255 251 251 252 253 253 253 253 252 255 262 265 265 270 272 275 277 277 276 275 275 276 276 276 277 277 277 278 279 278 279 278 280 283 284 287 287 284 283 280 275 271 268 260 263 272 280 287 290 283 286 299 289 256 251 261 276 292 295 291 291 289 285 278 271 273
224 223 224 226 229 232 234 237 240 244 248 253 258 263 266 269 270 271 270 269 264 259 255 253 253 254 255 255 256 256 258 258 261 266 267 270 273 274 274 273 273 272 271 271 271 272 272 272 273 274 276 277 278 278 280 282 282 286 287 288 289 285 280 274 271 267 272 278 282 287 288 283 287 292 284 266 261 264 273 286 296 297 294 293 293 288 282 275
226 226 227 229 231 233 236 239 242 245 249 253 258 261 265 268 269 270 269 267 263 259 256 255 255 256 257 257 258 262 263 262 264 266 268 270 271 271 272 271 270 269 268 268 269 269 270 270 272 273 275 276 277 278 279 280 282 285 286 288 289 286 283 278 279 279 278 281 285 291 291 287 290 290 281 267 262 264 270 281 293 298 295 294 292 290 289 286
229 228 229 231 233 235 238 240 243 246 249 253 257 261 264 266 268 268 267 265 262 260 257 256 256 257 257 257 259 263 262 263 266 266 267 269 269 270 270 270 269 268 268 267 267 267 268 269 271 273 273 274 276 278 279 281 283 285 286 287 285 284 284 284 285 281 278 283 288 294 292 292 296 287 266 254 256 261 267 276 285 292 292 291 289 287 287 286
231 231 231 233 234 237 239 242 245 248 251 255 258 261 263 265 265 265 264 262 260 259 258 258 258 259 260 260 260 262 263 264 266 267 269 269 270 270 270 269 268 267 267 266 265 265 265 266 269 270 270 272 273 274 276 279 282 283 284 285 286 285 285 285 281 271 273 284 289 290 286 292 298 283 259 245 252 261 267 271 278 285 287 287 287 287 285 285
233 233 233 235 236 238 242 245 247 250 254 257 259 261 262 263 263 262 261 259 258 258 259 260 261 262 263 263 264 264 266 267 267 269 270 270 271 270 269 268 266 266 266 265 264 263 263 264 265 267 268 269 271 271 273 277 280 280 281 282 284 286 287 286 277 272 275 280 286 282 277 286 287 272 260 250 257 264 265 267 275 281 281 281 284 286 287 290
233 233 234 236 238 241 244 247 250 253 256 258 260 261 262 262 261 260 259 258 257 258 260 261 264 265 267 267 267 267 269 270 270 270 270 270 270 269 268 267 265 265 263 262 262 262 262 263 264 265 267 268 268 269 271 275 276 276 276 278 279 281 283 283 277 273 275 281 285 274 268 278 275 263 260 257 260 262 262 269 276 279 278 276 278 282 287 293
233 233 234 236 239 243 246 249 252 254 257 259 260 261 260 260 259 258 258 258 259 260 262 264 266 268 270 270 269 269 271 271 270 269 269 269 268 268 267 265 263 262 260 261 261 262 262 262 264 265 266 267 266 267 272 273 271 271 273 275 277 279 279 279 276 272 277 283 282 269 260 267 270 267 264 262 262 262 266 272 276 278 276 272 274 277 284 292
233 234 235 237 240 243 247 249 252 255 257 259 259 260 259 258 258 258 258 259 261 262 264 266 267 269 271 270 269 270 271 270 269 269 269 268 267 268 266 264 262 261 261 262 260 261 262 261 263 264 266 266 264 265 263 266 273 278 279 278 278 277 273 273 276 280 286 285 276 266 260 263 268 268 267 267 267 269 273 276 278 280 275 269 272 277 284 288
233 235 236 238 241 244 247 249 253 255 257 258 258 258 258 258 258 259 260 261 262 264 265 267 268 269 269 269 269 270 269 268 269 269 269 267 267 266 264 262 261 260 260 259 260 261 262 262 261 262 262 261 262 263 260 270 288 292 288 285 280 274 268 270 277 284 288 286 278 270 267 270 272 269 268 268 268 270 273 276 281 283 276 270 275 283 286 280
233 235 237 240 242 244 247 250 253 255 256 257 257 258 258 259 260 261 262 263 264 265 267 267 265 265 266 267 269 269 268 268 269 268 268 267 265 263 261 260 258 258 258 261 263 264 262 260 257 258 262 264 271 275 275 285 293 287 281 279 277 272 267 271 278 282 285 284 280 275 274 276 275 271 270 269 268 268 271 275 280 283 279 277 281 286 284 270
235 236 239 241 243 245 247 249 251 252 254 255 256 258 259 261 263 264 265 265 265 265 264 264 263 263 264 266 267 267 268 268 267 267 266 264 263 262 260 259 259 260 262 264 264 263 262 257 257 263 271 276 280 280 281 282 279 273 270 269 269 268 268 275 280 281 283 282 279 278 276 276 274 271 270 268 268 269 271 275 277 279 279 280 282 285 282 267
236 238 240 243 245 247 248 248 249 249 251 253 255 258 260 263 266 267 268 267 265 264 263 262 263 263 264 265 265 266 266 265 264 263 263 263 262 262 261 261 261 262 264 264 262 263 259 255 262 272 278 278 274 273 274 274 271 268 265 265 265 266 271 279 282 281 282 281 280 278 275 273 271 269 267 267 267 268 270 271 271 272 274 280 283 284 281 271
237 239 241 244 246 248 249 248 247 247 249 252 255 258 262 265 267 268 269 268 264 263 263 262 262 262 263 263 263 263 262 262 263 262 262 263 261 261 262 261 261 262 262 261 259 257 254 258 270 277 275 272 270 269 268 267 265 263 262 262 263 267 273 279 282 282 281 280 281 280 276 273 270 267 266 267 268 266 264 263 262 264 271 278 284 284 282 277
237 240 242 244 246 247 248 248 247 247 248 252 255 259 263 265 267 268 269 270 267 263 261 262 262 262 260 259 260 259 260 260 261 261 261 261 260 260 260 260 261 260 258 258 257 253 253 264 275 273 267 266 265 264 262 260 258 257 258 259 263 269 275 278 282 284 283 283 283 282 280 275 270 267 266 267 268 263 257 254 255 260 267 274 280 283 283 280
239 241 242 244 245 246 247 247 247 247 249 252 256 259 261 262 264 266 269 272 270 265 261 261 261 261 259 259 259 257 259 260 258 259 259 260 259 259 259 259 259 257 256 257 258 257 259 267 270 265 262 261 260 260 258 256 255 256 259 260 266 272 276 279 282 283 283 283 282 283 285 280 274 269 266 264 262 258 252 250 251 254 259 267 276 281 281 280
240 242 242 244 245 246 246 247 247 249 252 254 255 257 259 259 261 264 268 273 273 269 264 262 261 261 259 257 256 257 258 258 257 258 259 258 258 258 258 257 255 255 257 257 257 259 261 264 264 263 262 260 258 257 256 256 258 260 262 265 269 274 276 276 278 280 283 284 282 282 283 283 276 265 260 255 251 249 247 247 248 249 256 265 272 274 274 276
241 242 242 243 244 245 246 247 248 251 253 253 256 257 256 258 260 263 269 276 275 271 268 266 261 259 258 255 254 255 256 257 257 256 257 256 256 256 255 254 254 254 255 256 256 258 260 261 261 261 260 256 254 253 253 253 256 260 263 266 270 274 273 272 274 277 278 282 285 277 266 275 275 259 254 257 254 251 250 251 250 252 259 266 268 267 267 270
240 241 242 243 244 245 246 248 249 250 252 253 254 254 255 256 258 261 270 282 278 272 269 264 259 257 257 255 253 249 248 255 256 253 253 253 253 254 253 252 253 252 253 251 248 253 260 261 259 257 253 251 249 249 251 250 251 256 260 263 267 273 274 273 275 276 273 274 273 268 268 275 277 265 257 259 260 260 260 258 257 259 263 266 266 265 265 267
240 240 241 243 244 245 247 248 248 248 251 251 250 250 251 251 253 256 262 276 272 270 267 258 254 255 252 249 248 242 243 251 253 251 251 251 250 251 251 251 252 253 253 248 246 253 261 259 255 251 244 245 248 250 252 250 249 253 258 262 268 274 274 271 273 276 280 276 267 263 265 270 276 270 258 254 254 259 263 261 260 262 263 263 262 262 263 265
239 240 240 242 244 245 246 247 247 247 248 246 245 246 245 246 248 244 236 241 254 258 256 248 247 247 239 236 238 238 242 246 246 248 250 248 247 246 247 249 248 248 247 247 248 252 254 251 250 247 241 243 246 245 244 244 246 249 253 258 265 271 271 271 273 275 279 273 262 266 263 257 275 277 248 239 250 255 256 255 255 255 254 255 256 258 260 263
238 239 240 241 242 244 245 246 246 244 244 242 241 241 241 241 237 219 205 239 245 248 243 237 238 240 237 233 232 235 241 245 245 246 245 244 244 243 241 242 241 241 243 245 247 246 246 247 246 243 242 239 235 230 230 231 234 238 242 249 259 268 271 273 272 271 279 272 258 266 255 242 264 322 198 218 233 219 222 243 251 249 248 249 253 254 256 261
237 239 240 241 242 244 246 246 245 242 241 241 239 237 236 234 222 198 220 243 244 245 236 228 232 240 243 242 240 241 242 245 245 243 241 240 239 235 230 228 230 232 237 241 244 244 241 241 241 241 239 234 229 227 225 226 226 228 233 238 247 264 273 270 261 252 254 257 251 260 242 231 229 218 146 170 164 157 225 256 254 249 248 249 251 251 253 257
236 238 239 241 243 245 246 246 244 243 241 238 237 233 227 219 210 214 230 241 249 250 234 230 236 239 240 241 242 243 242 242 242 239 238 234 234 234 230 228 227 224 231 239 242 245 243 239 238 238 237 233 230 227 224 227 226 224 227 225 223 246 315 267 242 226 236 248 258 254 237 234 239 244 244 233 234 256 269 268 258 256 257 254 250 249 251 257
237 238 240 242 244 245 246 246 242 239 236 233 232 227 214 203 223 231 232 233 233 240 229 226 231 233 234 236 237 238 238 238 237 234 233 231 232 236 233 231 229 225 231 241 240 242 246 244 237 235 237 234 230 228 228 229 227 225 223 216 202 159 71 260 252 278 262 257 260 250 243 254 256 256 257 255 258 270 274 271 262 257 257 255 251 250 254 261
240 241 241 242 244 244 244 243 238 234 231 228 227 219 203 206 235 237 234 233 232 236 238 222 216 221 227 232 235 236 235 234 234 231 230 230 231 232 230 227 226 227 230 235 237 235 237 245 237 231 234 235 234 234 235 237 236 231 226 220 214 204 197 219 212 207 257 285 273 238 227 248 260 272 279 269 266 275 277 271 263 259 258 256 255 257 263 269
240 240 240 240 240 241 240 238 236 232 228 226 222 212 205 217 232 236 236 237 235 235 237 233 222 218 221 226 229 232 234 234 233 230 230 232 233 234 235 232 229 227 226 225 230 231 231 243 243 232 232 234 236 236 233 232 233 230 222 218 221 222 223 236 249 245 270 309 277 227 231 257 272 279 279 277 277 276 274 271 268 266 264 260 261 264 267 271
238 239 238 238 238 238 237 235 234 229 225 224 215 208 218 230 235 237 241 241 237 235 232 228 225 223 222 224 226 229 233 234 233 230 230 233 235 236 236 235 235 234 231 228 227 227 231 244 246 239 236 231 229 229 226 226 227 222 216 218 224 227 228 237 264 270 270 288 270 245 254 268 276 279 277 275 277 276 275 276 272 266 261 259 260 262 267 277
236 236 236 237 237 236 235 233 231 225 221 220 214 217 231 238 240 241 243 241 238 236 231 226 228 229 228 226 228 232 233 231 230 229 230 231 236 237 234 232 232 232 232 232 233 234 234 240 244 239 236 232 229 226 221 222 225 222 221 224 227 228 229 230 247 292 237 252 269 257 264 273 273 274 279 281 282 280 279 279 274 266 260 255 254 260 275 285
236 235 235 236 236 235 233 231 229 224 219 215 214 225 236 238 239 241 239 237 235 231 228 228 231 234 234 232 233 235 231 228 227 227 229 230 235 241 236 231 230 228 228 228 230 234 233 237 241 234 231 232 229 225 218 218 222 225 230 230 223 216 213 211 211 244 233 223 273 265 270 275 270 268 279 286 288 289 284 278 275 268 260 257 260 270 279 281
235 233 234 236 236 234 233 231 226 220 217 214 213 224 233 234 237 237 234 233 232 227 227 230 232 234 237 239 238 235 231 229 229 228 229 231 234 239 236 229 227 225 226 227 228 230 230 234 237 228 229 231 225 222 219 219 219 223 227 228 226 224 211 206 210 218 219 215 264 272 275 276 276 278 285 289 292 292 286 281 280 272 266 267 272 277 278 277
232 232 235 236 233 232 231 229 223 215 215 216 216 222 229 231 232 233 231 230 228 226 228 231 233 234 238 241 239 234 231 232 234 233 232 233 234 235 232 225 222 221 221 223 225 227 228 231 234 227 223 223 224 228 231 233 231 228 227 225 225 226 221 225 233 234 229 213 241 261 267 271 278 289 291 289 290 287 284 287 284 277 275 278 280 279 277 276
229 229 235 235 229 228 226 220 216 213 215 219 218 221 226 227 229 231 232 231 229 229 230 229 229 232 238 242 240 235 230 231 234 234 234 234 233 231 229 225 226 227 222 219 222 225 225 230 235 232 226 227 234 240 241 240 240 240 241 240 238 235 230 229 242 239 232 225 231 228 262 269 272 279 283 284 286 285 287 288 285 283 283 283 281 280 277 275
223 224 231 233 227 225 221 215 213 215 218 221 220 221 224 226 228 229 231 231 229 229 229 227 227 230 236 241 241 237 231 230 231 231 232 234 233 232 230 228 229 231 230 228 229 232 231 232 236 237 238 242 245 244 239 235 235 238 242 247 248 245 237 228 230 242 235 232 239 235 255 269 270 273 276 277 280 283 284 285 288 288 285 282 280 279 278 276
221 223 230 232 229 227 224 217 216 218 220 223 225 226 227 230 232 232 233 234 234 233 231 228 227 229 233 237 236 233 230 228 229 229 230 232 233 233 233 232 232 230 230 231 231 230 227 229 233 238 245 247 243 241 239 235 234 234 238 242 242 242 242 239 242 248 245 238 235 206 245 265 269 274 275 277 279 281 284 286 288 285 281 282 283 282 281 276
225 223 226 228 228 227 224 219 217 220 222 224 227 229 230 234 237 238 238 239 240 240 236 232 232 232 232 234 232 227 225 226 228 230 231 233 234 234 233 233 233 232 232 234 234 230 225 226 227 227 239 245 238 237 235 232 231 233 237 239 240 241 243 244 246 247 249 247 239 218 248 260 267 273 274 277 280 282 284 283 280 279 282 288 288 284 279 269
228 224 223 225 224 222 223 223 222 222 224 225 227 229 231 234 238 240 242 244 245 245 241 237 235 235 233 232 230 227 223 224 228 230 230 232 234 234 233 234 235 235 235 237 237 234 230 229 227 220 214 223 224 223 230 233 232 233 237 239 240 242 242 243 245 242 240 243 239 241 252 259 266 271 272 275 278 279 276 275 279 284 289 289 284 278 269 257
226 221 220 223 224 225 227 229 227 225 226 226 227 228 231 234 237 241 242 242 244 245 243 239 235 233 232 231 231 230 227 226 227 229 230 231 231 231 232 233 234 234 235 235 234 231 229 229 229 229 230 233 237 241 244 245 239 237 242 245 244 244 244 245 243 239 238 239 241 249 257 261 266 269 270 270 272 273 273 279 288 291 288 283 276 267 256 247
221 218 218 220 220 220 223 225 225 226 228 228 227 229 232 234 237 240 239 238 240 240 237 235 233 231 232 232 232 232 230 228 227 229 231 230 229 230 232 233 234 234 235 233 232 231 231 232 234 236 239 243 248 253 256 256 252 249 250 251 248 246 244 243 241 243 247 244 247 257 261 263 267 269 268 269 272 276 281 287 291 288 283 276 267 257 250 250
218 219 221 223 220 218 221 224 224 225 228 229 229 231 234 234 235 236 236 234 235 234 230 229 230 232 233 235 234 232 231 229 230 232 233 232 231 232 234 235 236 236 235 233 234 235 237 241 243 245 249 252 253 253 254 254 255 255 254 254 252 249 247 248 250 254 255 250 256 264 265 264 268 269 267 269 273 278 282 285 285 283 279 270 263 259 259 264
222 221 223 225 226 225 226 226 225 223 226 229 229 231 234 235 235 235 235 232 232 232 230 228 230 232 234 236 236 233 231 230 233 236 236 234 234 236 238 238 237 236 235 234 235 235 236 241 246 247 249 252 252 250 251 253 254 255 255 256 257 256 257 259 260 261 259 256 260 264 263 262 265 266 266 270 275 279 282 283 283 280 276 271 268 269 270 272
228 227 226 226 228 228 226 224 221 219 221 224 227 230 234 235 235 234 233 232 232 233 232 232 234 237 238 239 238 238 238 242 247 245 237 233 236 239 239 240 240 239 236 233 233 233 234 239 245 247 247 251 253 252 252 253 255 258 258 258 258 259 260 260 259 258 257 258 261 261 260 262 263 265 270 276 282 285 283 280 279 277 275 273 273 273 275 275
229 230 230 230 230 229 226 223 219 219 220 223 227 231 232 233 233 232 231 233 235 236 237 238 240 240 237 236 237 242 247 252 253 246 238 239 245 247 244 242 241 238 233 233 234 236 237 240 245 248 248 252 256 256 255 255 257 258 258 256 255 257 258 257 257 258 259 261 263 261 261 265 268 271 276 280 282 281 278 276 275 274 274 274 274 275 275 274
222 225 230 232 231 230 228 226 224 223 224 226 231 234 234 235 234 229 227 228 232 235 238 240 240 237 235 237 242 248 250 249 247 243 239 241 244 244 243 240 237 234 234 239 242 245 246 247 249 250 246 250 257 259 255 253 253 253 254 255 255 256 257 257 258 263 265 264 264 263 265 271 276 278 279 279 279 277 275 275 275 274 273 273 273 273 272 272
Height
3164 3164 3165 3166 3167 3168 3169 3169 3170 3171 3171 3171 3172 3172 3172 3173 3173 3173 3174 3174 3174 3175 3175 3175 3175 3175 3175 3175 3175 3175 3175 3175 3175 3175 3175 3175 3175 3175 3175 3175 3175 3175 3175 3175 3175 3175 3175 3175 3175 3175 3176 3176 3175 3175 3175 3175 3176 3176 3176 3176 3176 3176 3176 3177 3177 3177 3177 3177 3177 3177 3177 3176 3176 3176 3175 3176 3176 3176 3175 3173 3172 3171 3171 3171 3170 3171 3171 3172
3163 3164 3165 3166 3166 3167 3168 3169 3169 3170 3170 3171 3171 3171 3172 3172 3172 3173 3173 3173 3174 3174 3174 3174 3174 3174 3174 3174 3174 3174 3174 3174 3174 3174 3174 3174 3174 3174 3174 3174 3174 3174 3174 3174 3174 3175 3175 3175 3175 3175 3175 3175 3175 3175 3175 3175 3175 3176 3176 3176 3176 3176 3176 3176 3176 3176 3176 3176 3176 3176 3175 3175 3174 3174 3173 3174 3174 3175 3174 3172 3171 3171 3170 3170 3169 3169 3170 3170
3162 3163 3164 3165 3166 3166 3167 3168 3168 3169 3169 3170 3170 3171 3171 3172 3172 3172 3172 3173 3173 3173 3173 3173 3173 3173 3173 3173 3173 3173 3173 3173 3173 3173 3173 3173 3173 3173 3174 3174 3174 3174 3174 3174 3174 3174 3174 3174 3174 3174 3174 3174 3175 3174 3174 3175 3175 3175 3175 3175 3175 3175 3175 3175 3175 3175 3175 3175 3175 3174 3174 3174 3173 3172 3172 3171 3172 3173 3172 3171 3171 3171 3171 3169 3169 3168 3168 3168
3162 3162 3163 3164 3165 3165 3166 3167 3167 3168 3168 3169 3169 3170 3170 3171 3171 3171 3171 3171 3172 3172 3172 3172 3172 3172 3172 3172 3172 3172 3172 3172 3172 3172 3172 3173 3173 3173 3173 3173 3173 3173 3173 3173 3173 3173 3173 3173 3173 3174 3174 3174 3174 3174 3174 3174 3174 3174 3175 3175 3175 3175 3175 3174 3174 3174 3174 3174 3174 3173 3173 3172 3172 3171 3170 3170 3170 3170 3170 3170 3170 3170 3170 3169 3168 3167 3167 3166
3160 3161 3162 3163 3164 3164 3165 3165 3166 3167 3167 3168 3168 3169 3169 3169 3170 3170 3170 3170 3171 3171 3171 3171 3171 3171 3171 3171 3171 3171 3171 3171 3171 3171 3172 3172 3172 3172 3172 3172 3172 3172 3172 3172 3172 3173 3173 3173 3173 3173 3173 3173 3173 3173 3173 3173 3173 3173 3174 3174 3174 3174 3174 3173 3173 3173 3172 3173 3172 3172 3171 3171 3171 3170 3169 3168 3168 3168 3168 3169 3169 3169 3168 3168 3167 3167 3166 3165
3159 3160 3161 3162 3162 3163 3164 3164 3165 3165 3166 3167 3167 3167 3168 3168 3169 3169 3169 3169 3169 3170 3170 3169 3169 3169 3170 3170 3170 3170 3170 3170 3170 3170 3171 3171 3171 3171 3171 3171 3171 3171 3171 3172 3172 3172 3172 3172 3172 3172 3172 3172 3172 3172 3171 3172 3172 3172 3173 3173 3173 3173 3173 3173 3172 3172 3171 3171 3171 3171 3170 3170 3169 3168 3168 3167 3166 3166 3166 3167 3168 3167 3167 3166 3166 3165 3165 3164
3158 3159 3159 3160 3161 3161 3162 3163 3163 3164 3165 3165 3166 3166 3166 3167 3167 3168 3168 3168 3168 3168 3168 3168 3168 3168 3168 3169 3169 3169 3169 3169 3169 3170 3170 3170 3170 3170 3170 3170 3170 3170 3171 3171 3171 3171 3171 3171 3171 3171 3171 3171 3171 3170 3170 3170 3170 3171 3171 3172 3171 3171 3172 3171 3171 3171 3170 3170 3170 3169 3169 3168 3167 3166 3167 3166 3165 3164 3165 3165 3165 3166 3166 3165 3165 3164 3163 3163
3156 3157 3158 3158 3159 3160 3160 3161 3162 3162 3163 3164 3164 3165 3165 3166 3166 3166 3166 3166 3167 3167 3167 3167 3167 3167 3167 3167 3168 3168 3168 3168 3168 3169 3169 3169 3169 3169 3169 3169 3169 3169 3169 3170 3170 3170 3170 3170 3170 3170 3170 3170 3169 3169 3169 3169 3169 3169 3170 3170 3170 3170 3170 3170 3170 3170 3169 3169 3169 3168 3168 3167 3165 3165 3165 3164 3163 3164 3164 3164 3164 3163 3163 3164 3163 3163 3162 3161
3154 3155 3156 3156 3157 3158 3159 3159 3160 3161 3161 3162 3162 3163 3163 3164 3164 3164 3164 3165 3165 3165 3165 3165 3165 3165 3166 3166 3166 3166 3167 3167 3167 3167 3167 3167 3167 3168 3168 3168 3168 3168 3168 3168 3168 3168 3168 3168 3168 3168 3168 3168 3168 3168 3167 3167 3167 3167 3168 3168 3169 3169 3169 3168 3168 3168 3168 3168 3167 3166 3166 3165 3164 3164 3163 3162 3163 3163 3163 3162 3162 3162 3161 3161 3161 3161 3161 3161
3152 3153 3154 3154 3155 3156 3157 3158 3158 3159 3159 3160 3161 3161 3161 3162 3162 3162 3163 3163 3163 3163 3163 3164 3164 3164 3164 3164 3164 3165 3165 3165 3165 3166 3166 3166 3166 3166 3166 3166 3166 3166 3166 3166 3167 3167 3167 3167 3166 3166 3166 3166 3166 3166 3166 3166 3166 3166 3166 3166 3167 3167 3167 3167 3167 3167 3166 3166 3165 3165 3164 3163 3163 3163 3162 3162 3162 3161 3161 3160 3160 3160 3160 3159 3159 3159 3159 3159
3150 3151 3152 3153 3153 3154 3155 3156 3156 3157 3157 3158 3159 3159 3159 3160 3160 3160 3161 3161 3161 3161 3161 3162 3162 3162 3162 3162 3163 3163 3164 3164 3164 3164 3164 3164 3164 3164 3164 3164 3165 3165 3165 3165 3165 3165 3165 3165 3165 3165 3164 3164 3164 3164 3164 3164 3164 3164 3164 3164 3165 3164 3165 3165 3165 3164 3164 3164 3164 3163 3162 3162 3161 3161 3161 3161 3160 3160 3159 3159 3158 3158 3158 3158 3157 3157 3157 3157
3148 3149 3150 3151 3151 3152 3153 3153 3154 3155 3155 3156 3156 3157 3157 3157 3158 3158 3158 3159 3159 3159 3159 3160 3160 3160 3160 3160 3161 3162 3162 3162 3162 3162 3162 3162 3162 3162 3162 3162 3162 3162 3162 3163 3163 3163 3163 3163 3163 3163 3163 3162 3162 3162 3162 3162 3163 3163 3162 3162 3163 3162 3162 3163 3163 3162 3162 3162 3162 3162 3160 3160 3160 3159 3159 3159 3158 3158 3158 3157 3156 3156 3156 3155 3155 3155 3155 3155
3146 3147 3148 3148 3149 3150 3151 3151 3152 3153 3153 3154 3154 3155 3155 3155 3155 3156 3156 3157 3157 3157 3157 3158 3158 3158 3158 3158 3160 3160 3160 3160 3160 3160 3160 3160 3160 3160 3160 3160 3160 3160 3160 3160 3160 3161 3161 3161 3161 3161 3161 3160 3160 3160 3160 3160 3161 3161 3161 3160 3160 3160 3160 3161 3161 3160 3160 3160 3161 3161 3159 3158 3158 3157 3157 3157 3156 3156 3156 3155 3155 3154 3154 3153 3153 3153 3153 3153
3143 3144 3145 3146 3147 3148 3148 3149 3150 3151 3151 3152 3152 3152 3152 3153 3153 3153 3154 3154 3155 3155 3156 3156 3156 3156 3156 3156 3157 3157 3158 3158 3158 3158 3158 3158 3158 3158 3158 3158 3158 3158 3158 3158 3158 3158 3159 3159 3159 3159 3159 3158 3158 3159 3159 3159 3159 3159 3159 3158 3158 3158 3158 3158 3158 3158 3159 3159 3159 3159 3157 3157 3157 3155 3155 3155 3154 3154 3153 3153 3153 3153 3153 3152 3151 3151 3151 3151
3140 3142 3143 3143 3144 3145 3146 3147 3148 3149 3149 3149 3150 3150 3150 3151 3151 3151 3152 3152 3153 3153 3153 3154 3154 3154 3153 3154 3155 3155 3155 3155 3155 3155 3155 3155 3155 3155 3155 3155 3156 3156 3156 3156 3156 3156 3157 3157 3157 3157 3157 3156 3156 3157 3157 3158 3157 3157 3157 3157 3157 3157 3156 3156 3156 3156 3157 3156 3157 3157 3155 3154 3156 3154 3153 3153 3152 3151 3151 3151 3152 3151 3151 3150 3150 3150 3149 3149
3138 3139 3140 3141 3142 3143 3144 3144 3145 3146 3147 3147 3147 3148 3148 3148 3149 3149 3150 3150 3151 3151 3151 3151 3151 3151 3150 3151 3151 3152 3152 3152 3152 3152 3152 3153 3153 3153 3153 3153 3153 3153 3153 3154 3154 3154 3154 3155 3155 3155 3155 3154 3154 3155 3156 3156 3155 3155 3155 3155 3155 3155 3154 3154 3154 3153 3155 3154 3154 3154 3153 3152 3153 3152 3151 3150 3149 3148 3148 3149 3149 3149 3149 3149 3149 3148 3148 3147
3135 3136 3137 3138 3139 3140 3141 3142 3143 3144 3144 3144 3145 3145 3146 3146 3146 3147 3147 3148 3148 3148 3148 3148 3149 3148 3148 3148 3149 3149 3149 3149 3150 3150 3150 3150 3150 3150 3150 3151 3151 3151 3151 3151 3151 3152 3152 3153 3153 3153 3153 3152 3152 3154 3154 3153 3152 3153 3153 3153 3153 3153 3153 3152 3152 3151 3151 3152 3151 3151 3150 3150 3151 3150 3148 3148 3147 3146 3145 3145 3146 3147 3147 3147 3147 3146 3146 3146
3132 3133 3134 3135 3136 3137 3138 3139 3140 3141 3142 3142 3142 3143 3143 3143 3144 3144 3144 3145 3145 3145 3145 3145 3146 3145 3145 3146 3146 3146 3146 3146 3147 3147 3147 3148 3148 3148 3148 3148 3148 3148 3148 3149 3149 3150 3150 3150 3151 3151 3150 3149 3150 3151 3151 3151 3151 3152 3151 3151 3151 3151 3150 3150 3150 3150 3149 3148 3149 3148 3147 3147 3148 3147 3146 3146 3144 3143 3143 3142 3143 3144 3145 3145 3145 3145 3145 3144
3129 3130 3131 3132 3133 3133 3134 3136 3137 3138 3139 3139 3140 3140 3140 3141 3141 3141 3141 3141 3142 3142 3142 3142 3143 3142 3142 3143 3143 3143 3144 3144 3144 3145 3145 3145 3145 3145 3145 3145 3146 3146 3146 3146 3147 3147 3147 3147 3148 3147 3146 3146 3148 3149 3149 3149 3150 3150 3149 3149 3148 3148 3148 3148 3148 3148 3147 3145 3145 3145 3143 3143 3144 3144 3143 3142 3142 3141 3141 3140 3141 3142 3143 3143 3143 3143 3143 3142
3125 3127 3128 3129 3130 3130 3131 3133 3134 3135 3136 3136 3137 3138 3138 3138 3138 3138 3138 3138 3139 3139 3139 3139 3139 3139 3140 3140 3141 3140 3141 3141 3142 3142 3142 3142 3143 3142 3143 3143 3143 3143 3143 3144 3144 3144 3144 3144 3144 3143 3143 3145 3147 3147 3147 3147 3147 3147 3146 3146 3146 3145 3144 3145 3146 3146 3145 3142 3141 3142 3141 3140 3141 3140 3139 3139 3138 3138 3138 3139 3139 3140 3140 3140 3141 3141 3140 3140
3122 3124 3125 3126 3127 3128 3128 3129 3131 3132 3132 3133 3134 3135 3135 3135 3135 3134 3135 3135 3135 3135 3135 3136 3135 3136 3137 3137 3137 3138 3138 3138 3138 3139 3139 3139 3140 3139 3139 3139 3140 3140 3140 3141 3141 3141 3141 3139 3140 3142 3143 3144 3145 3145 3144 3144 3144 3144 3143 3143 3143 3142 3141 3143 3144 3143 3142 3139 3138 3139 3138 3137 3138 3137 3136 3135 3135 3136 3136 3137 3137 3138 3137 3137 3138 3138 3138 3138
3119 3120 3122 3123 3123 3124 3125 3127 3128 3129 3129 3130 3131 3132 3132 3133 3132 3132 3131 3130 3131 3132 3132 3132 3132 3132 3134 3134 3134 3135 3134 3134 3135 3135 3136 3136 3136 3136 3136 3136 3136 3137 3137 3138 3137 3137 3136 3135 3138 3141 3142 3141 3142 3142 3142 3141 3141 3141 3141 3140 3139 3139 3139 3140 3141 3140 3139 3137 3136 3136 3134 3134 3135 3133 3132 3132 3133 3134 3134 3135 3135 3135 3135 3135 3135 3136 3136 3136
3115 3116 3118 3119 3120 3121 3122 3124 3125 3126 3126 3127 3128 3129 3129 3129 3129 3129 3128 3126 3126 3128 3128 3128 3128 3129 3131 3130 3130 3131 3130 3131 3132 3131 3132 3132 3132 3132 3132 3132 3133 3133 3134 3133 3133 3133 3132 3133 3137 3139 3138 3138 3138 3138 3138 3138 3137 3137 3138 3137 3136 3137 3138 3138 3138 3138 3137 3135 3134 3133 3131 3131 3131 3129 3128 3129 3130 3131 3132 3132 3132 3132 3132 3133 3133 3133 3133 3133
3111 3113 3114 3115 3116 3117 3118 3120 3121 3122 3123 3124 3125 3126 3126 3127 3126 3126 3126 3123 3120 3122 3124 3124 3124 3124 3126 3126 3127 3127 3126 3127 3127 3127 3128 3128 3128 3128 3128 3129 3130 3129 3130 3130 3130 3129 3129 3132 3134 3135 3135 3136 3135 3135 3135 3135 3134 3135 3135 3134 3133 3135 3136 3136 3136 3136 3134 3133 3132 3132 3129 3125 3125 3125 3125 3126 3127 3128 3129 3129 3130 3130 3131 3131 3131 3131 3131 3130
3107 3109 3110 3111 3112 3113 3115 3116 3117 3120 3120 3121 3122 3123 3123 3124 3124 3124 3124 3121 3114 3115 3119 3119 3119 3120 3121 3122 3122 3123 3123 3122 3122 3124 3124 3124 3124 3124 3124 3126 3125 3125 3127 3128 3127 3125 3126 3130 3130 3130 3132 3132 3132 3132 3132 3132 3132 3133 3132 3132 3132 3133 3134 3134 3135 3134 3132 3131 3130 3131 3128 3121 3120 3123 3123 3124 3125 3126 3126 3126 3127 3128 3129 3129 3129 3129 3129 3128
3103 3105 3106 3107 3108 3109 3110 3111 3115 3117 3116 3118 3119 3120 3121 3121 3122 3122 3123 3119 3109 3107 3112 3114 3114 3114 3115 3117 3118 3119 3118 3116 3118 3120 3120 3120 3120 3120 3120 3121 3121 3122 3124 3125 3124 3122 3123 3126 3126 3127 3128 3128 3129 3128 3128 3130 3130 3130 3130 3130 3131 3131 3132 3132 3133 3133 3131 3130 3129 3130 3129 3121 3118 3122 3123 3123 3124 3124 3124 3125 3125 3126 3126 3126 3126 3126 3126 3126
3099 3101 3102 3103 3104 3105 3106 3108 3113 3113 3113 3116 3116 3117 3119 3119 3121 3121 3122 3119 3104 3099 3105 3107 3108 3108 3110 3112 3113 3115 3113 3110 3114 3115 3115 3116 3115 3116 3116 3116 3117 3119 3121 3122 3120 3118 3119 3123 3123 3123 3124 3124 3124 3124 3125 3127 3128 3127 3127 3128 3129 3130 3131 3131 3131 3131 3129 3129 3128 3129 3129 3122 3115 3118 3121 3122 3123 3123 3123 3123 3123 3124 3124 3124 3124 3123 3124 3124
3095 3097 3098 3099 3100 3101 3102 3105 3108 3109 3111 3113 3113 3115 3115 3116 3119 3119 3123 3119 3100 3093 3099 3101 3102 3104 3105 3108 3108 3110 3108 3107 3110 3110 3111 3112 3112 3112 3112 3112 3114 3116 3118 3118 3116 3116 3118 3119 3119 3120 3120 3120 3120 3121 3123 3125 3125 3125 3126 3126 3127 3128 3129 3129 3129 3129 3128 3127 3126 3126 3128 3123 3113 3113 3118 3119 3120 3121 3121 3121 3121 3121 3121 3121 3121 3121 3121 3122
3091 3092 3094 3095 3096 3097 3098 3100 3104 3106 3108 3109 3111 3112 3112 3115 3116 3117 3122 3114 3094 3089 3095 3097 3099 3101 3102 3104 3105 3105 3105 3105 3107 3107 3108 3109 3108 3108 3109 3110 3112 3113 3114 3114 3113 3115 3116 3116 3117 3117 3117 3117 3118 3119 3120 3121 3122 3123 3124 3124 3125 3126 3126 3127 3127 3127 3126 3124 3122 3123 3126 3122 3112 3110 3115 3116 3117 3118 3119 3119 3120 3120 3119 3119 3119 3119 3119 3119
3086 3087 3090 3091 3090 3091 3093 3096 3100 3103 3103 3105 3107 3108 3110 3111 3112 3116 3117 3103 3088 3088 3092 3093 3096 3097 3099 3101 3102 3103 3103 3102 3103 3104 3105 3105 3105 3105 3106 3107 3109 3109 3110 3110 3111 3112 3113 3113 3114 3114 3114 3115 3116 3117 3117 3118 3119 3120 3122 3122 3124 3124 3125 3125 3125 3125 3126 3121 3118 3119 3122 3121 3114 3108 3110 3113 3114 3116 3117 3119 3119 3118 3118 3117 3117 3117 3117 3117
3081 3083 3085 3085 3085 3087 3090 3093 3096 3099 3100 3102 3103 3105 3106 3106 3109 3112 3103 3089 3086 3087 3087 3090 3093 3094 3096 3098 3098 3099 3099 3100 3100 3100 3101 3101 3102 3102 3103 3104 3105 3107 3107 3107 3108 3109 3110 3110 3111 3111 3112 3113 3114 3114 3115 3116 3116 3118 3119 3120 3122 3123 3123 3123 3123 3124 3124 3119 3116 3117 3118 3118 3113 3107 3108 3110 3112 3114 3116 3117 3118 3117 3117 3116 3116 3115 3115 3114
3074 3077 3079 3080 3082 3083 3085 3089 3093 3095 3097 3098 3099 3099 3100 3103 3104 3097 3086 3084 3087 3083 3082 3087 3089 3091 3093 3093 3094 3095 3096 3096 3097 3097 3098 3098 3099 3099 3100 3101 3102 3104 3104 3104 3105 3106 3106 3107 3108 3109 3109 3110 3111 3112 3113 3113 3114 3115 3116 3118 3120 3122 3122 3122 3121 3122 3119 3115 3114 3115 3116 3112 3106 3104 3108 3109 3110 3112 3114 3115 3116 3116 3116 3116 3115 3114 3113 3112
3069 3072 3074 3075 3077 3078 3081 3086 3089 3090 3091 3093 3094 3093 3096 3098 3089 3078 3077 3082 3083 3079 3080 3084 3085 3088 3090 3089 3090 3091 3092 3093 3094 3095 3096 3096 3096 3097 3098 3098 3099 3100 3100 3101 3103 3104 3104 3104 3105 3106 3106 3107 3108 3108 3110 3110 3111 3112 3113 3115 3117 3120 3122 3120 3120 3119 3116 3112 3112 3113 3114 3107 3100 3101 3105 3106 3108 3109 3110 3113 3114 3115 3115 3115 3114 3113 3111 3111
3065 3067 3069 3070 3072 3074 3077 3081 3083 3084 3085 3087 3087 3088 3091 3087 3073 3068 3073 3077 3078 3079 3080 3081 3083 3085 3086 3086 3087 3088 3089 3090 3091 3092 3092 3093 3093 3093 3094 3094 3095 3097 3098 3100 3101 3101 3102 3101 3101 3102 3103 3104 3105 3106 3107 3108 3109 3110 3111 3113 3113 3114 3116 3115 3115 3114 3111 3110 3110 3111 3110 3102 3096 3098 3100 3102 3105 3107 3108 3110 3111 3112 3113 3112 3112 3111 3110 3109
3059 3061 3063 3065 3066 3068 3071 3074 3077 3079 3079 3079 3081 3082 3080 3072 3063 3064 3068 3071 3075 3077 3077 3080 3082 3082 3083 3083 3085 3085 3087 3087 3087 3089 3089 3088 3089 3089 3090 3091 3092 3094 3095 3097 3098 3099 3099 3098 3099 3100 3100 3102 3103 3104 3106 3107 3108 3108 3109 3110 3109 3109 3111 3111 3111 3110 3111 3111 3107 3106 3103 3097 3095 3097 3097 3100 3102 3104 3106 3107 3108 3109 3109 3109 3109 3109 3109 3108
3054 3055 3056 3057 3058 3061 3065 3069 3072 3074 3074 3074 3075 3072 3064 3059 3059 3061 3063 3066 3070 3071 3074 3078 3078 3079 3079 3080 3081 3082 3084 3084 3084 3085 3084 3085 3086 3086 3086 3088 3089 3090 3091 3094 3095 3095 3096 3096 3097 3098 3098 3100 3101 3102 3103 3104 3105 3105 3105 3105 3106 3108 3109 3110 3110 3108 3111 3110 3102 3098 3096 3094 3094 3093 3093 3098 3100 3101 3103 3103 3104 3105 3106 3107 3108 3108 3108 3107
3046 3046 3048 3048 3051 3055 3059 3063 3066 3068 3069 3067 3063 3058 3053 3053 3057 3059 3060 3062 3065 3067 3072 3073 3073 3074 3074 3075 3076 3078 3080 3080 3080 3080 3081 3082 3082 3080 3082 3085 3086 3087 3089 3092 3092 3092 3093 3094 3094 3096 3097 3098 3099 3100 3100 3101 3102 3102 3102 3103 3105 3107 3108 3109 3110 3108 3110 3109 3099 3094 3092 3091 3090 3089 3089 3094 3097 3098 3100 3100 3100 3102 3103 3105 3106 3106 3106 3106
3039 3040 3040 3041 3046 3050 3054 3058 3059 3061 3062 3060 3055 3050 3049 3049 3052 3055 3056 3058 3061 3064 3066 3067 3068 3069 3069 3070 3072 3074 3076 3076 3075 3076 3077 3078 3077 3075 3077 3080 3082 3084 3087 3089 3090 3090 3090 3092 3093 3094 3095 3096 3097 3097 3097 3098 3099 3099 3099 3101 3103 3104 3105 3106 3107 3105 3106 3105 3097 3091 3089 3086 3084 3085 3087 3091 3093 3095 3096 3097 3098 3100 3101 3103 3104 3104 3104 3103
3034 3034 3031 3033 3041 3046 3049 3052 3053 3054 3053 3051 3049 3045 3042 3043 3046 3050 3052 3054 3058 3060 3060 3061 3064 3066 3066 3066 3068 3070 3072 3070 3071 3073 3073 3073 3073 3072 3074 3076 3077 3080 3083 3085 3086 3086 3088 3089 3090 3090 3092 3093 3093 3093 3093 3094 3096 3097 3098 3100 3100 3101 3101 3101 3102 3100 3099 3100 3096 3091 3088 3081 3079 3082 3085 3088 3091 3092 3093 3094 3096 3098 3099 3100 3101 3101 3100 3100
3026 3025 3021 3028 3037 3039 3043 3046 3046 3045 3042 3040 3040 3037 3035 3038 3041 3044 3048 3051 3054 3055 3056 3058 3061 3062 3061 3063 3065 3066 3067 3067 3068 3069 3069 3069 3069 3069 3071 3073 3074 3077 3079 3081 3082 3083 3085 3086 3086 3087 3089 3089 3088 3088 3089 3090 3092 3093 3094 3096 3096 3098 3099 3098 3097 3095 3095 3096 3094 3092 3086 3078 3077 3080 3083 3086 3088 3089 3091 3092 3094 3095 3096 3096 3097 3097 3096 3096
3019 3017 3014 3021 3029 3033 3038 3039 3036 3035 3033 3031 3032 3031 3031 3034 3036 3039 3044 3047 3050 3051 3052 3054 3056 3057 3057 3059 3060 3062 3063 3064 3064 3065 3065 3065 3066 3067 3068 3070 3072 3074 3075 3077 3078 3079 3081 3082 3082 3083 3083 3083 3084 3085 3087 3088 3089 3090 3090 3091 3092 3094 3095 3096 3094 3091 3091 3092 3089 3089 3084 3076 3077 3080 3081 3084 3086 3086 3088 3089 3090 3092 3092 3092 3092 3092 3093 3093
3011 3008 3007 3013 3020 3026 3029 3027 3026 3027 3025 3023 3024 3026 3028 3029 3031 3035 3039 3042 3045 3047 3049 3050 3051 3052 3053 3054 3056 3058 3059 3059 3058 3059 3059 3060 3062 3065 3066 3068 3070 3071 3072 3073 3074 3076 3078 3079 3079 3079 3078 3080 3082 3083 3084 3085 3086 3088 3088 3088 3089 3090 3090 3091 3089 3087 3088 3087 3084 3086 3082 3074 3075 3079 3080 3081 3083 3084 3085 3086 3087 3088 3088 3088 3088 3089 3089 3089
3002 3002 3004 3007 3013 3018 3019 3017 3018 3019 3018 3018 3021 3024 3026 3026 3027 3031 3034 3037 3040 3042 3044 3045 3046 3048 3049 3049 3051 3053 3054 3054 3054 3055 3055 3056 3059 3062 3064 3065 3067 3068 3070 3070 3071 3073 3075 3075 3075 3076 3076 3078 3079 3080 3081 3082 3084 3084 3084 3084 3085 3085 3086 3086 3085 3084 3084 3081 3081 3085 3080 3071 3073 3077 3077 3078 3080 3081 3083 3083 3084 3084 3084 3085 3085 3085 3085 3084
2996 2999 3000 3002 3007 3010 3009 3008 3009 3010 3011 3014 3017 3019 3021 3022 3022 3025 3027 3031 3034 3037 3039 3040 3042 3044 3044 3045 3046 3048 3049 3050 3050 3051 3052 3054 3056 3058 3060 3061 3063 3064 3066 3066 3068 3070 3071 3071 3072 3074 3075 3075 3075 3077 3077 3077 3079 3079 3079 3080 3080 3081 3083 3083 3082 3082 3079 3076 3079 3082 3073 3068 3073 3075 3074 3076 3077 3078 3080 3080 3081 3080 3080 3081 3081 3081 3081 3080
2992 2994 2996 2998 3002 3002 3001 3001 3002 3003 3005 3009 3010 3012 3015 3016 3016 3018 3022 3026 3029 3032 3034 3035 3037 3039 3040 3041 3042 3042 3044 3045 3045 3047 3048 3050 3052 3054 3056 3057 3059 3061 3062 3064 3064 3066 3066 3066 3067 3068 3069 3068 3069 3069 3069 3070 3073 3074 3074 3075 3077 3078 3078 3078 3078 3077 3074 3073 3076 3074 3066 3066 3072 3072 3070 3073 3075 3076 3077 3077 3076 3077 3076 3076 3076 3076 3076 3076
2984 2986 2989 2992 2995 2995 2995 2997 2999 3000 3001 3004 3005 3007 3009 3011 3011 3014 3018 3021 3023 3026 3029 3030 3032 3034 3034 3035 3036 3037 3039 3040 3042 3043 3044 3046 3048 3050 3052 3054 3055 3057 3059 3060 3061 3062 3062 3061 3061 3061 3060 3060 3061 3063 3064 3066 3068 3069 3069 3071 3072 3073 3073 3074 3072 3069 3069 3071 3070 3065 3063 3066 3069 3069 3068 3071 3073 3073 3073 3073 3073 3073 3072 3072 3072 3072 3072 3073
2978 2979 2982 2985 2987 2988 2988 2990 2993 2994 2996 2999 3000 3001 3004 3006 3008 3010 3013 3015 3017 3020 3023 3024 3026 3027 3028 3029 3031 3032 3034 3036 3037 3038 3040 3042 3044 3046 3048 3050 3052 3054 3055 3056 3056 3057 3057 3056 3057 3057 3056 3057 3059 3061 3062 3063 3064 3065 3066 3067 3068 3068 3068 3067 3065 3064 3068 3068 3062 3059 3063 3064 3063 3065 3067 3068 3070 3069 3069 3069 3070 3069 3068 3068 3068 3068 3069 3069
2975 2975 2977 2980 2980 2980 2981 2983 2986 2989 2991 2993 2995 2996 2999 3002 3003 3005 3007 3009 3012 3015 3017 3018 3019 3020 3022 3024 3026 3027 3030 3032 3033 3033 3035 3037 3040 3042 3044 3046 3048 3049 3050 3051 3052 3053 3053 3052 3053 3054 3054 3055 3057 3058 3059 3060 3060 3061 3061 3061 3062 3063 3062 3061 3060 3062 3065 3062 3056 3058 3062 3059 3058 3062 3064 3065 3066 3065 3065 3066 3066 3065 3065 3064 3064 3065 3065 3066
2970 2971 2973 2975 2975 2975 2977 2979 2982 2985 2987 2989 2990 2991 2994 2996 2998 3000 3002 3005 3006 3009 3011 3011 3012 3015 3018 3020 3022 3023 3025 3027 3027 3028 3030 3033 3036 3038 3039 3041 3042 3043 3045 3047 3047 3049 3049 3048 3050 3051 3051 3052 3054 3054 3055 3057 3057 3056 3056 3055 3055 3056 3056 3056 3056 3057 3058 3055 3053 3056 3056 3053 3055 3058 3059 3061 3061 3061 3062 3062 3061 3061 3061 3060 3060 3060 3060 3060
2967 2968 2969 2971 2971 2972 2974 2976 2978 2981 2982 2984 2984 2986 2989 2991 2993 2996 2998 2999 3000 3002 3005 3006 3008 3012 3014 3017 3018 3019 3021 3023 3023 3025 3028 3030 3031 3032 3034 3035 3036 3038 3041 3042 3043 3044 3045 3044 3046 3047 3048 3048 3049 3050 3051 3053 3052 3051 3050 3048 3048 3049 3050 3049 3049 3051 3051 3050 3050 3052 3050 3047 3051 3054 3055 3056 3057 3057 3057 3057 3056 3056 3055 3054 3054 3054 3054 3054
2963 2965 2966 2967 2968 2969 2970 2972 2974 2976 2978 2979 2979 2982 2985 2986 2989 2993 2994 2995 2997 2998 3000 3002 3005 3009 3011 3012 3014 3015 3019 3021 3022 3023 3025 3027 3027 3028 3030 3031 3032 3034 3036 3038 3039 3040 3041 3041 3042 3044 3044 3042 3043 3045 3046 3048 3049 3046 3040 3038 3041 3043 3042 3042 3043 3045 3046 3045 3046 3047 3043 3042 3047 3051 3051 3051 3052 3052 3051 3051 3050 3050 3049 3049 3049 3049 3049 3048
2959 2960 2963 2964 2965 2966 2967 2969 2970 2972 2973 2974 2976 2979 2981 2984 2987 2990 2990 2991 2993 2995 2996 3000 3003 3004 3005 3007 3009 3012 3015 3017 3018 3019 3020 3021 3023 3024 3025 3026 3028 3029 3031 3033 3034 3036 3037 3037 3039 3041 3039 3037 3039 3040 3041 3046 3045 3035 3026 3029 3035 3036 3036 3037 3039 3040 3040 3041 3041 3039 3037 3039 3044 3046 3045 3045 3046 3045 3045 3045 3045 3044 3044 3044 3044 3044 3043 3043